Vorticity
7 9 6 4 4 7 7 6 9 9 9 6 7 7 5 9 7 8 6 2 4 19
7 7 7 12 5 8 4 7 9 8 8 7 7 8 8 6 6 9 6 6 5 2
7 7 6 9 11 10 10 9 8 7 8 8 7 8 9 8 7 6 8 7 6 6
7 7 7 4 7 10 9 6 5 10 5 9 11 6 9 8 8 8 7 6 8 6
5 8 5 6 4 6 7 3 8 5 10 10 7 6 8 8 9 8 8 7 6 8
14 7 8 7 7 4 4 9 5 7 5 2 10 8 6 9 8 9 10 8 7 7
5 15 17 9 6 6 5 5 5 6 5 3 7 6 6 3 7 9 6 8 9 7
20 25 1 13 7 7 6 6 5 5 6 6 6 5 9 4 8 6 7 8 7 8
-25 51 8 5 12 6 7 6 6 5 6 6 4 9 9 3 9 4 6 6 7 6
11 1 23 66 15 24 4 7 5 7 3 4 5 8 8 7 7 6 8 7 6 8
9 10 11 11 21 6 16 27 46 5 8 5 3 1 3 7 8 9 8 6 5 3
13 13 7 7 4 12 25 21 21 26 33 10 2 8 6 6 4 11 9 11 6 6
5 11 17 19 7 -2 -0 4 8 14 29 22 38 11 10 4 7 4 -1 4 8 -4
4 3 1 -1 1 5 5 5 7 8 8 4 27 45 33 8 -15 -7 6 -4 2 -9
Height
5946 5948 5948 5949 5951 5952 5954 5955 5956 5957 5958 5959 5961 5963 5963 5964 5966 5968 5969 5970 5971 5972
5943 5945 5947 5948 5949 5950 5952 5954 5955 5956 5957 5958 5959 5960 5962 5963 5965 5966 5967 5968 5969 5970
5939 5941 5944 5946 5948 5949 5950 5952 5953 5954 5955 5957 5958 5959 5961 5962 5963 5964 5965 5966 5967 5967
5936 5938 5939 5942 5944 5946 5947 5950 5952 5953 5954 5956 5957 5958 5959 5960 5961 5963 5963 5964 5965 5965
5930 5932 5932 5935 5939 5942 5943 5945 5947 5949 5951 5953 5954 5956 5957 5958 5959 5961 5961 5962 5963 5964
5922 5924 5927 5930 5934 5936 5939 5940 5942 5944 5946 5949 5950 5951 5953 5954 5956 5958 5959 5959 5960 5962
5916 5917 5919 5924 5928 5931 5933 5934 5937 5939 5941 5943 5945 5946 5948 5950 5951 5953 5955 5956 5958 5958
5907 5910 5913 5916 5920 5923 5926 5928 5930 5933 5935 5937 5939 5942 5944 5946 5947 5948 5950 5952 5953 5955
5904 5905 5906 5910 5914 5916 5918 5921 5924 5927 5928 5929 5934 5937 5939 5940 5941 5943 5945 5945 5947 5948
5900 5903 5904 5903 5908 5909 5912 5913 5915 5919 5921 5924 5927 5929 5931 5933 5934 5936 5938 5939 5941 5942
5895 5898 5900 5899 5902 5902 5903 5907 5909 5910 5914 5917 5920 5922 5923 5925 5927 5929 5930 5933 5933 5935
5889 5891 5892 5895 5896 5896 5897 5897 5898 5903 5905 5909 5912 5913 5916 5918 5920 5921 5922 5924 5924 5926
5883 5885 5886 5889 5891 5892 5891 5893 5894 5897 5898 5897 5900 5904 5905 5908 5910 5913 5915 5916 5917 5919
5878 5880 5882 5884 5884 5885 5886 5887 5888 5889 5890 5890 5891 5892 5895 5897 5899 5902 5904 5905 5907 5910